The Dalles, WA

7:20 PM PDT on June 23, 2017 (GMT -0700)
Columbia Gorge Regional-The Dalles

Weather History for KDLS - January, 2014

Change the Weather History Date:

Wednesday, January 29, 2014

  Actual Average Record
Temperature  
Mean Temperature 40 °F -  
Max Temperature 48 °F 41 °F 64 °F (1999)
Min Temperature 33 °F 28 °F -13 °F (1957)
Degree Days  
Heating Degree Days 24    
Moisture  
Dew Point 34 °F    
Average Humidity 89    
Maximum Humidity 96    
Minimum Humidity 71    
Precipitation  
Precipitation 0.19 in - - ()
Sea Level Pressure  
Sea Level Pressure 29.92 in    
Wind  
Wind Speed 3 mph (WNW)    
Max Wind Speed 23 mph    
Max Gust Speed 23 mph    
Visibility 6 miles    
Events Rain    
Averages and records for this station are not official NWS values.
T = Trace of Precipitation, MM = Missing Value Source: NWS Daily Summary

Daily Weather History Graph

Daily Weather History Graph

Search for Another Location

Airport or City:

Trip Planner

Search our weather history database for the weather conditions in past years. The results will help you decide how hot, cold, wet, or windy it might be!

Date:

Astronomy

Jan. 29, 2014 Rise Set
Actual Time 7:29 AM PST 5:06 PM PST
Civil Twilight 6:57 AM PST 5:38 PM PST
Nautical Twilight 6:21 AM PST 6:14 PM PST
Astronomical Twilight 5:46 AM PST 6:49 PM PST
Moon 6:10 AM PST (1/29) 4:13 PM PST (1/29)
Length of Visible Light 10h 41m
Length of Day
9h 37m
Waning Crescent, 2% of the Moon is Illuminated
Jan 29
Waning Crescent
Jan 30
New
Feb 6
First Quarter
Feb 14
Full
Feb 22
Last Quarter

Hourly Weather History & Observations

Time (PST) Temp. Windchill Dew Point Humidity Pressure Visibility Wind Dir Wind Speed Gust Speed Precip Events Conditions
12:53 AM 34.0 °F 31.0 °F 33.1 °F 96% 30.09 in 4.0 mi ENE 3.5 mph - 0.01 in Rain Light Rain
1:21 AM 34.0 °F - 33.1 °F 96% 30.07 in 4.0 mi Calm Calm - 0.01 in   Overcast
1:53 AM 34.0 °F - 32.0 °F 92% 30.06 in 4.0 mi Calm Calm - 0.02 in Rain Light Rain
2:17 AM 34.0 °F - 33.1 °F 96% 30.04 in 2.5 mi Calm Calm - 0.01 in Rain Light Rain
2:30 AM 34.0 °F - 33.1 °F 96% 30.02 in 3.0 mi Calm Calm - 0.02 in Rain Light Rain
2:53 AM 34.0 °F - 33.1 °F 96% 30.03 in 3.0 mi Calm Calm - 0.03 in Rain Light Rain
3:06 AM 34.0 °F 31.0 °F 33.1 °F 96% 30.02 in 2.0 mi West 3.5 mph - 0.01 in Rain Light Rain
3:21 AM 34.0 °F - 33.1 °F 96% 30.01 in 2.0 mi Calm Calm - 0.02 in Rain Light Rain
3:53 AM 34.0 °F - 33.1 °F 96% 30.01 in 2.5 mi Calm Calm - 0.04 in Rain Light Rain
4:01 AM 34.0 °F - 33.1 °F 96% 30.00 in 2.5 mi Calm Calm - 0.00 in   Overcast
4:26 AM 34.0 °F - 33.1 °F 96% 30.00 in 2.0 mi Calm Calm - 0.02 in Rain Light Rain
4:34 AM 34.0 °F - 33.1 °F 96% 29.99 in 2.0 mi Calm Calm - 0.02 in Rain Light Rain
4:53 AM 34.0 °F - 33.1 °F 96% 30.00 in 2.5 mi Calm Calm - 0.03 in Rain Light Rain
5:07 AM 34.0 °F - 33.1 °F 96% 30.00 in 3.0 mi Calm Calm - 0.01 in Rain Light Rain
5:53 AM 34.0 °F 29.8 °F 33.1 °F 96% 29.98 in 3.0 mi SE 4.6 mph - 0.06 in Rain Light Rain
6:02 AM 34.0 °F 31.0 °F 33.1 °F 96% 29.96 in 3.0 mi East 3.5 mph - 0.00 in Rain Light Rain
6:27 AM 34.0 °F - 33.1 °F 96% 29.96 in 4.0 mi Calm Calm - 0.00 in   Overcast
6:38 AM 34.0 °F 31.0 °F 32.0 °F 92% 29.95 in 4.0 mi NE 3.5 mph - 0.00 in   Mostly Cloudy
6:48 AM 33.8 °F - 32.0 °F 93% 29.96 in 4.0 mi Calm Calm - 0.00 in   Scattered Clouds
6:53 AM 34.0 °F 31.0 °F 33.1 °F 96% 29.96 in 4.0 mi ENE 3.5 mph - 0.00 in   Scattered Clouds
7:53 AM 34.0 °F 31.0 °F 33.1 °F 96% 29.95 in 3.0 mi West 3.5 mph - N/A   Scattered Clouds
8:30 AM 34.0 °F 31.0 °F 33.1 °F 96% 29.93 in 5.0 mi SW 3.5 mph - N/A   Mostly Cloudy
8:37 AM 34.0 °F 31.0 °F 33.1 °F 96% 29.93 in 4.0 mi SW 3.5 mph - N/A   Scattered Clouds
8:53 AM 35.1 °F 32.2 °F 33.1 °F 92% 29.93 in 5.0 mi South 3.5 mph - N/A   Partly Cloudy
9:53 AM 36.0 °F - 33.1 °F 89% 29.91 in 9.0 mi Calm Calm - N/A   Partly Cloudy
11:53 AM 37.9 °F 35.5 °F 34.0 °F 86% 29.83 in 10.0 mi WNW 3.5 mph - N/A   Mostly Cloudy
12:11 PM 37.0 °F 34.5 °F 34.0 °F 89% 29.80 in 10.0 mi West 3.5 mph - N/A   Scattered Clouds
12:53 PM 39.9 °F - 35.1 °F 83% 29.77 in 10.0 mi Calm Calm - N/A   Scattered Clouds
1:53 PM 41.0 °F - 35.1 °F 79% 29.73 in 10.0 mi Calm Calm - 0.00 in   Overcast
2:53 PM 42.1 °F - 36.0 °F 79% 29.73 in 10.0 mi Calm Calm - N/A   Overcast
3:53 PM 41.0 °F - 37.0 °F 86% 29.74 in 10.0 mi Calm Calm - N/A   Overcast
4:53 PM 42.1 °F 36.6 °F 37.9 °F 85% 29.73 in 10.0 mi SE 9.2 mph - 0.00 in   Partly Cloudy
5:53 PM 46.0 °F 43.1 °F 39.9 °F 79% 29.73 in 10.0 mi Variable 5.8 mph - N/A   Mostly Cloudy
6:53 PM 48.0 °F - 39.9 °F 74% 29.75 in 10.0 mi NW 17.3 mph 23.0 mph N/A   Overcast
7:53 PM 46.9 °F - 39.0 °F 74% 29.78 in 10.0 mi North 12.7 mph 23.0 mph N/A   Mostly Cloudy
8:53 PM 46.9 °F - 37.9 °F 71% 29.81 in 10.0 mi NW 23.0 mph - N/A   Scattered Clouds
9:53 PM 46.0 °F 39.0 °F 37.0 °F 71% 29.82 in 10.0 mi WNW 17.3 mph 23.0 mph N/A   Clear
10:53 PM 45.0 °F 42.6 °F 37.0 °F 74% 29.86 in 10.0 mi NW 4.6 mph - N/A   Overcast
11:53 PM 44.1 °F 38.6 °F 37.0 °F 76% 29.87 in 10.0 mi NNW 10.4 mph - N/A   Mostly Cloudy